Total_Precipitation_Accumulation
1.08 0.92 0.85 0.99 0.94 0.89 0.86 0.83 0.71 0.56 0.41 0.28 0.27 0.23 0.24 0.21 0.18 0.14 0.25 0.26 0.32 0.41 0.39 0.27 0.17 0.09 0.08 0.10 0.20 0.31 0.41 0.44 0.56 0.63 0.65 0.63 0.55 0.42 0.29 0.15 0.10 0.09 0.09
0.97 0.96 0.80 0.82 0.88 0.97 1.08 1.06 0.85 0.68 0.54 0.39 0.36 0.34 0.31 0.25 0.22 0.16 0.21 0.21 0.22 0.28 0.34 0.37 0.28 0.16 0.13 0.12 0.18 0.28 0.37 0.39 0.46 0.55 0.64 0.73 0.72 0.54 0.34 0.19 0.15 0.13 0.12
0.82 0.93 0.87 0.80 0.81 0.98 1.10 1.13 1.00 0.86 0.65 0.51 0.43 0.39 0.30 0.22 0.20 0.20 0.19 0.18 0.16 0.21 0.31 0.42 0.43 0.34 0.24 0.21 0.22 0.29 0.34 0.36 0.39 0.46 0.52 0.55 0.54 0.50 0.41 0.31 0.26 0.24 0.23
0.87 0.97 0.96 0.85 0.84 1.00 1.12 1.16 1.17 1.07 0.87 0.71 0.57 0.47 0.38 0.32 0.29 0.26 0.27 0.23 0.19 0.17 0.25 0.33 0.44 0.50 0.44 0.36 0.29 0.25 0.25 0.24 0.25 0.29 0.32 0.32 0.34 0.34 0.34 0.34 0.36 0.39 0.39
0.86 0.96 1.08 1.08 1.08 1.10 1.13 1.14 1.10 1.01 0.90 0.77 0.66 0.57 0.48 0.42 0.38 0.31 0.30 0.32 0.29 0.20 0.16 0.16 0.24 0.25 0.34 0.41 0.35 0.27 0.23 0.19 0.16 0.16 0.18 0.18 0.20 0.23 0.25 0.29 0.31 0.37 0.39
1.10 1.03 1.09 1.10 1.12 1.17 1.17 1.26 1.33 1.17 0.96 0.90 0.84 0.71 0.60 0.48 0.41 0.34 0.31 0.33 0.32 0.27 0.22 0.15 0.13 0.11 0.18 0.34 0.38 0.29 0.23 0.21 0.20 0.17 0.14 0.12 0.13 0.15 0.18 0.21 0.22 0.25 0.28
1.23 1.24 1.21 1.17 1.14 1.13 1.17 1.34 1.53 1.41 1.20 1.04 1.05 0.90 0.71 0.56 0.47 0.40 0.32 0.31 0.33 0.30 0.29 0.30 0.20 0.14 0.09 0.13 0.16 0.22 0.24 0.27 0.27 0.24 0.20 0.15 0.11 0.11 0.12 0.14 0.16 0.18 0.19
1.20 1.13 1.25 1.32 1.25 1.29 1.33 1.46 1.59 1.60 1.42 1.26 1.34 1.46 1.12 0.83 0.52 0.39 0.34 0.29 0.31 0.32 0.28 0.32 0.28 0.18 0.10 0.09 0.05 0.11 0.16 0.24 0.27 0.24 0.21 0.18 0.13 0.10 0.08 0.09 0.10 0.13 0.17
1.46 1.36 1.43 1.54 1.44 1.44 1.44 1.47 1.49 1.70 1.73 1.56 1.52 1.75 1.38 1.11 0.99 0.54 0.35 0.34 0.37 0.38 0.34 0.32 0.29 0.28 0.24 0.15 0.07 0.06 0.08 0.11 0.20 0.23 0.22 0.19 0.14 0.10 0.09 0.10 0.11 0.13 0.15
1.67 1.56 1.54 1.57 1.57 1.60 1.49 1.40 1.50 1.74 2.04 1.96 1.82 1.61 1.35 1.15 1.18 0.98 0.61 0.42 0.44 0.43 0.41 0.36 0.36 0.37 0.36 0.29 0.19 0.10 0.07 0.07 0.16 0.23 0.25 0.23 0.17 0.10 0.09 0.10 0.12 0.14 0.15
1.69 1.56 1.49 1.50 1.55 1.62 1.58 1.61 1.74 1.93 2.10 2.21 2.11 1.86 1.56 1.30 0.97 0.95 0.94 0.77 0.57 0.43 0.40 0.40 0.42 0.43 0.40 0.37 0.33 0.28 0.15 0.07 0.12 0.23 0.29 0.30 0.26 0.18 0.11 0.10 0.10 0.12 0.11
1.52 1.50 1.48 1.41 1.34 1.40 1.49 1.64 1.86 1.95 2.07 2.21 2.17 1.89 1.66 1.46 1.24 1.12 0.94 0.93 0.93 0.67 0.52 0.46 0.43 0.43 0.46 0.43 0.40 0.45 0.33 0.15 0.10 0.17 0.24 0.32 0.33 0.30 0.22 0.15 0.11 0.12 0.12
1.33 1.34 1.36 1.29 1.18 1.15 1.25 1.42 1.62 1.66 1.74 1.89 1.92 1.81 1.70 1.51 1.41 1.42 1.30 1.16 1.05 0.76 0.61 0.51 0.44 0.45 0.48 0.48 0.54 0.61 0.45 0.34 0.20 0.16 0.19 0.23 0.27 0.32 0.36 0.33 0.27 0.24 0.21
1.17 1.10 1.12 1.13 1.10 1.07 1.08 1.16 1.24 1.31 1.40 1.54 1.60 1.61 1.52 1.49 1.51 1.41 1.32 1.37 1.21 0.97 0.71 0.47 0.41 0.43 0.45 0.48 0.66 0.74 0.48 0.42 0.33 0.23 0.20 0.19 0.19 0.22 0.29 0.36 0.40 0.45 0.39
0.94 0.89 0.96 1.05 1.11 1.03 0.96 1.00 1.03 1.06 1.18 1.26 1.38 1.53 1.50 1.47 1.50 1.50 1.45 1.38 1.31 1.13 0.90 0.59 0.47 0.40 0.45 0.51 0.70 0.67 0.54 0.49 0.41 0.33 0.26 0.20 0.17 0.16 0.19 0.22 0.27 0.32 0.34
0.85 0.85 0.88 0.88 0.89 0.87 0.90 0.98 1.05 1.11 1.11 1.14 1.25 1.38 1.47 1.52 1.60 1.57 1.54 1.51 1.39 1.22 1.08 0.81 0.61 0.49 0.54 0.53 0.64 0.55 0.58 0.68 0.54 0.40 0.31 0.24 0.20 0.18 0.17 0.17 0.17 0.15 0.15
0.66 0.68 0.66 0.70 0.80 0.79 0.79 0.87 0.92 0.93 0.98 1.07 1.13 1.14 1.27 1.42 1.52 1.56 1.58 1.54 1.50 1.38 1.15 0.99 0.76 0.60 0.61 0.60 0.64 0.56 0.59 0.65 0.58 0.52 0.43 0.35 0.28 0.24 0.19 0.16 0.15 0.11 0.09
0.44 0.51 0.55 0.54 0.69 0.85 0.87 0.89 0.89 0.84 0.85 0.86 0.91 0.98 1.09 1.15 1.23 1.37 1.49 1.46 1.48 1.48 1.32 1.15 0.95 0.78 0.70 0.66 0.73 0.75 0.73 0.72 0.71 0.80 0.77 0.60 0.46 0.36 0.28 0.21 0.17 0.12 0.09
0.33 0.38 0.51 0.50 0.54 0.71 0.82 0.82 0.76 0.74 0.76 0.77 0.80 0.84 0.90 1.00 1.11 1.15 1.25 1.34 1.39 1.40 1.39 1.26 1.18 1.07 0.90 0.79 0.80 0.79 0.84 0.95 0.94 0.98 1.06 0.91 0.70 0.55 0.44 0.35 0.28 0.19 0.13
0.36 0.35 0.35 0.37 0.43 0.53 0.65 0.66 0.63 0.62 0.61 0.65 0.75 0.82 0.86 0.90 0.96 1.04 1.08 1.20 1.31 1.36 1.33 1.25 1.19 1.14 1.05 1.00 0.96 0.92 0.99 1.09 1.15 1.06 1.10 1.07 0.98 0.85 0.69 0.56 0.44 0.34 0.26
0.22 0.24 0.21 0.22 0.27 0.34 0.39 0.40 0.47 0.51 0.56 0.61 0.70 0.75 0.78 0.74 0.77 0.84 0.84 0.97 1.12 1.25 1.27 1.29 1.21 1.13 1.06 1.02 0.99 0.98 1.03 1.18 1.25 1.26 1.25 1.18 1.09 0.95 0.81 0.69 0.56 0.46 0.41
0.09 0.14 0.14 0.16 0.20 0.22 0.26 0.24 0.29 0.42 0.52 0.58 0.64 0.68 0.74 0.74 0.72 0.68 0.67 0.72 0.84 0.95 1.05 1.14 1.16 1.10 1.04 1.01 1.06 1.13 1.12 1.18 1.32 1.27 1.15 1.26 1.21 1.10 0.94 0.76 0.74 0.69 0.56
0.06 0.08 0.08 0.13 0.17 0.13 0.15 0.14 0.24 0.45 0.51 0.52 0.51 0.63 0.73 0.78 0.82 0.85 0.72 0.69 0.72 0.76 0.80 0.92 0.99 0.98 0.99 1.00 1.01 1.09 1.16 1.18 1.10 1.14 1.08 1.18 1.20 1.11 0.97 0.87 0.87 0.77 0.70
0.03 0.07 0.08 0.14 0.14 0.09 0.10 0.13 0.19 0.36 0.45 0.43 0.44 0.54 0.70 0.81 0.85 0.86 0.80 0.84 0.83 0.74 0.68 0.73 0.87 0.92 0.92 1.03 1.11 1.18 1.26 1.23 1.21 1.19 1.07 1.09 1.07 0.96 0.91 0.90 0.94 0.81 0.72
0.02 0.05 0.09 0.10 0.07 0.04 0.06 0.10 0.18 0.35 0.43 0.44 0.41 0.49 0.65 0.74 0.83 0.84 0.81 0.91 0.92 0.75 0.66 0.71 0.74 0.80 0.87 0.98 1.12 1.19 1.22 1.19 1.21 1.22 1.03 0.90 0.90 0.92 0.93 0.89 0.86 0.84 0.76
0.01 0.02 0.04 0.06 0.05 0.06 0.05 0.05 0.12 0.23 0.32 0.40 0.41 0.46 0.66 0.72 0.74 0.71 0.72 0.92 1.03 0.90 0.66 0.61 0.66 0.77 0.83 0.95 1.16 1.25 1.35 1.27 1.09 1.09 0.98 0.86 0.87 0.91 1.05 0.99 0.82 0.74 0.70